Regional Weather Roundup
Issued by NWS

Home | Current Version | Previous Version | Text Only | Print | Product List | Glossary On
Versions: 1 2 3 4 5 6 7 8 9 10 11 12 13 14 15 16 17 18 19 20 21 22 23 24 25 26 27 28 29 30 31 32 33 34 35 36 37 38 39 40 41 42 43 44 45 46 47 48 49 50
000
ASUS43 KMKX 191411
RWRWI

WISCONSIN REGIONAL WEATHER ROUNDUP
NATIONAL WEATHER SERVICE MILWAUKEE/SULLIVAN WI
800 AM CST SUN FEB 19 2017

NOTE: "FAIR" INDICATES FEW OR NO CLOUDS BELOW 12,000 FEET WITH NO
SIGNIFICANT WEATHER AND/OR OBSTRUCTIONS TO VISIBILITY.

WIZ001-002-006>008-014>016-023>028-191500-
NORTHWEST WISCONSIN

CITY           SKY/WX    TMP DP  RH WIND       PRES   REMARKS
SUPERIOR ARPT  CLOUDY    29  28  96 CALM      29.99R
ASHLAND        CLOUDY    31  28  89 CALM      29.99R
HAYWARD        CLOUDY    29  27  92 CALM      29.98R
SIREN          PTCLDY    29  28  95 CALM      29.97R
CUMBERLAND     PTCLDY    30  30 100 CALM      29.97R
RICE LAKE      PTCLDY    29  28  97 CALM      29.99R
CHETEK         PTCLDY    28  28  99 CALM      29.99R
LADYSMITH      CLOUDY    31  31  97 CALM      30.00R
EAU CLAIRE     CLEAR     30  29  96 CALM      29.98R FOG
MENOMONIE      PTCLDY    31  30  98 CALM      29.99R FOG
NEW RICHMOND   CLEAR     32  32 100 CALM      29.97R FOG
OSCEOLA        CLOUDY    32  32 100 CALM      29.99R
$$

WIZ003>005-009-010-017-018-191500-
NORTH CENTRAL WISCONSIN

CITY           SKY/WX    TMP DP  RH WIND       PRES   REMARKS
MANITOWISH WTR CLOUDY    26  26 100 CALM      29.97R
ARBOR VITAE    CLOUDY    29  27  92 CALM      29.98R
WOODRUFF       CLOUDY    29  27  92 CALM      29.98R
RHINELANDER    MOSUNNY   30  28  92 W3        29.99R
EAGLE RIVER    CLOUDY    28  27  95 CALM      29.96R
LAND O LAKES   MOSUNNY   28  25  89 CALM      29.98R
PHILLIPS       PTCLDY    27  26  99 CALM      29.98R
TOMAHAWK       PTCLDY    28  27  96 CALM      30.00R
MEDFORD        CLEAR     31  29  94 CALM      29.99R FOG
MERRILL        NOT AVBL
$$

WIZ029-030-035-036-043>047-191500-
CENTRAL WISCONSIN

CITY           SKY/WX    TMP DP  RH WIND       PRES   REMARKS
WAUSAU         SUNNY     33  31  92 CALM      29.99R
MOSINEE        MOSUNNY   34  34 100 W3        30.01R
MARSHFIELD     SUNNY     33  30  88 CALM      29.98R
STEVENS POINT  SUNNY     28  28 100 CALM      30.01R
WAUPACA        SUNNY     37  33  88 CALM      30.01R
WAUTOMA        SUNNY     35  30  82 CALM      30.02R
WISC RAPIDS    SUNNY     30  29  96 CALM      30.02R
CAMP DOUGLAS   MOSUNNY   30  27  86 CALM      30.01R
$$

WIZ011>013-019>022-031-037>040-048>050-191500-
NORTHEAST WISCONSIN

CITY           SKY/WX    TMP DP  RH WIND       PRES   REMARKS
ANTIGO         SUNNY     28  27  96 CALM      30.00R
SHAWANO        SUNNY     36  32  85 W3        30.01R
OCONTO         MOSUNNY   34  31  88 CALM      30.00R
STURGEON BAY   SUNNY     40  31  70 W3        30.00R
GREEN BAY      SUNNY     39  35  86 NW5       30.01R
MANITOWOC      SUNNY     43  33  68 MISG      30.02R
APPLETON       MOSUNNY   37  30  75 W3        29.98R
CLINTONVILLE   SUNNY     34  32  93 CALM      30.01R
OSHKOSH        SUNNY     38  32  79 W3        30.00R
$$

WIZ032>034-041-042-053>061-191500-
SOUTHWEST WISCONSIN

CITY           SKY/WX    TMP DP  RH WIND       PRES   REMARKS
LA CROSSE      CLEAR     32  30  92 S5        30.01R WCI  27
SPARTA         CLOUDY    26  25  94 CALM      30.02R
VIROQUA        SUNNY     38  32  81 CALM      29.99R
BOSCOBEL       SUNNY     30  28  92 CALM      30.03R
PRAIRIE DU CHI PTSUNNY   29  28  96 CALM      30.03R FOG
PLATTEVILLE    SUNNY     39  36  87 CALM      30.02R
$$

WIZ056-057-062-063-064-067-068-191500-
SOUTH CENTRAL WISCONSIN

CITY           SKY/WX    TMP DP  RH WIND       PRES   REMARKS
REEDSBURG      SUNNY     29  29 100 CALM      30.02R
BARABOO/DELLS  SUNNY     32  29  90 CALM      30.02R
LONE ROCK      MOSUNNY   31  28  89 CALM      30.04R
MINERAL POINT  CLOUDY    45  34  65 SE3       30.01R
MADISON        MOSUNNY   32  29  88 CALM      30.02R
MIDDLETON      SUNNY     33  32  96 CALM      30.03R
WATERTOWN      SUNNY     31  31 100 CALM      30.02R
MONROE         SUNNY     43  30  61 SE5       30.02R
JANESVILLE     MOSUNNY   32  32 100 CALM      30.02R
$$

WIZ051-052-058>065-066-070>072-191500-
SOUTHEAST WISCONSIN

CITY           SKY/WX    TMP DP  RH WIND       PRES   REMARKS
MILWAUKEE      MOSUNNY   47  32  56 NW6       30.01R
WAUKESHA       SUNNY     37  28  70 CALM      30.02R
MILWAUKEE/TIMM SUNNY     37  28  70 CALM      30.01R
RACINE         SUNNY     45  31  58 W5        30.02R
KENOSHA        SUNNY     39  32  76 SW6       30.01R WCI  35
FOND DU LAC    SUNNY     37  30  75 SW7       30.02R WCI  32
SHEBOYGAN      SUNNY     40  32  73 W5        30.00R
WEST BEND      SUNNY     36  32  87 W3        30.02R
JUNEAU         SUNNY     35  31  87 CALM      30.04R
$$

LSZ147-162-191500-
LAKE SUPERIOR

STATION/POSITION TIME  TEMP    WIND        PRES    WAVE
                       AIR SEA DIR/SP/G            HT/PER
                 (UTC) (F)     (DEG/KT/KT) (MB)    (FT/S)
DEVILS ISLAND    1300   37      10/  8/  9 1015.1R
PORT WING        1340   30     140/  2/  3 1015.6R
SAXON HARBOR     1330   29     200/  5/  6 1014.9R
$$

LMZ867-665-643>646-191500-
LAKE MICHIGAN

STATION/POSITION TIME  TEMP    WIND        PRES    WAVE
                       AIR SEA DIR/SP/G            HT/PER
                 (UTC) (F)     (DEG/KT/KT) (MB)    (FT/S)
CHAMBERS ISLAND  1340   42     250/  4/  6 1014.9R
NORTHPORT PIER   1340   45     310/ 11/ 13 1015.2R
SISTER BAY       1220   38        CALM       N/A
KEWAUNEE LAKESHO 1342   40     300/  4/  6 1014.9R
SHEBOYGAN LAKESH 1400   47     300/  5/  7 1016.2R
PORT WASHINGTON  1340   47     310/  8/ 11 1016.6R
MILWAUKEE LAKESH 1350   47     310/  6/  8   N/A
KENOSHA   LAKESH 1400   47     280/  4/  6 1016.6
$$

TC  - TEMPERATURE IN CELSIUS
VSB - VISIBILITY IN STATUTE MILES
WCI - WIND CHILL INDEX
HX  - HEAT INDEX





USA.gov is the U.S. government's official web portal to all federal, state and local government web resources and services.